EN

Hourly Weather Ladeniska

Today, 5 August, Thursday

Time Temperature Precipitation Wind Pressure Humidity
00:00 +15°C° 0 mm 1 mps 744 mmHg 91%
01:00 +15°C° 0 mm 1 mps 744 mmHg 91%
02:00 +15°C° 0 mm 1 mps 744 mmHg 91%
03:00 +15°C° 0 mm 1 mps 744 mmHg 92%
04:00 +15°C° 0 mm 1 mps 743 mmHg 93%
05:00 +15°C° 0 mm 2 mps 743 mmHg 94%
06:00 +16°C° 0 mm 2 mps 743 mmHg 90%
07:00 +17°C° 0 mm 2 mps 743 mmHg 85%
08:00 +18°C° 0 mm 2 mps 743 mmHg 80%
09:00 +18°C° 0.1 mm 2 mps 742 mmHg 82%
10:00 +18°C° 0.1 mm 2 mps 742 mmHg 85%
11:00 +18°C° 0.1 mm 3 mps 742 mmHg 87%
12:00 +19°C° 0 mm 3 mps 742 mmHg 84%
13:00 +20°C° 0 mm 3 mps 741 mmHg 80%
14:00 +21°C° 0 mm 3 mps 741 mmHg 77%
15:00 +21°C° 0.1 mm 3 mps 740 mmHg 77%
16:00 +21°C° 0.1 mm 4 mps 740 mmHg 77%
17:00 +21°C° 0.1 mm 4 mps 739 mmHg 78%
18:00 +20°C° 1.5 mm 4 mps 739 mmHg 84%
19:00 +19°C° 1.5 mm 5 mps 738 mmHg 90%
20:00 +17°C° 1.5 mm 5 mps 738 mmHg 96%
21:00 +17°C° 5.5 mm 5 mps 737 mmHg 97%
22:00 +17°C° 5.5 mm 5 mps 736 mmHg 97%
23:00 +17°C° 5.5 mm 5 mps 735 mmHg 97%

Tomorrow, 6 August, Friday

Time Temperature Precipitation Wind Pressure Humidity
00:00 +17°C° 1.8 mm 5 mps 735 mmHg 97%
01:00 +18°C° 1.8 mm 4 mps 734 mmHg 97%
02:00 +18°C° 1.8 mm 3 mps 733 mmHg 97%
03:00 +18°C° 0.1 mm 3 mps 733 mmHg 97%
04:00 +18°C° 0.1 mm 3 mps 733 mmHg 96%
05:00 +17°C° 0.1 mm 3 mps 732 mmHg 96%
06:00 +17°C° 0.1 mm 4 mps 732 mmHg 96%
07:00 +16°C° 0.1 mm 5 mps 732 mmHg 96%
08:00 +16°C° 0.1 mm 6 mps 732 mmHg 96%
09:00 +16°C° 0 mm 6 mps 733 mmHg 95%
10:00 +15°C° 0 mm 7 mps 734 mmHg 93%
11:00 +15°C° 0 mm 7 mps 735 mmHg 92%
12:00 +16°C° 0 mm 7 mps 735 mmHg 88%
13:00 +16°C° 0 mm 7 mps 736 mmHg 84%
14:00 +17°C° 0 mm 7 mps 736 mmHg 81%
15:00 +17°C° 0 mm 6 mps 737 mmHg 82%
16:00 +16°C° 0 mm 6 mps 737 mmHg 83%
17:00 +16°C° 0 mm 5 mps 737 mmHg 84%
18:00 +15°C° 0 mm 5 mps 738 mmHg 85%
19:00 +15°C° 0 mm 5 mps 738 mmHg 85%
20:00 +14°C° 0 mm 4 mps 738 mmHg 86%
21:00 +14°C° 0 mm 4 mps 739 mmHg 89%
22:00 +13°C° 0 mm 4 mps 739 mmHg 92%
23:00 +12°C° 0 mm 4 mps 739 mmHg 95%

Day after tomorrow, 7 August, Saturday

Time Temperature Precipitation Wind Pressure Humidity
00:00 +12°C° 0 mm 4 mps 739 mmHg 95%
01:00 +12°C° 0 mm 3 mps 739 mmHg 96%
02:00 +12°C° 0 mm 3 mps 740 mmHg 96%
03:00 +12°C° 0 mm 3 mps 740 mmHg 96%
04:00 +11°C° 0 mm 3 mps 740 mmHg 96%
05:00 +12°C° 0 mm 2 mps 740 mmHg 97%
06:00 +13°C° 0 mm 3 mps 741 mmHg 90%
07:00 +15°C° 0 mm 4 mps 741 mmHg 84%
08:00 +18°C° 0 mm 4 mps 741 mmHg 77%
09:00 +19°C° 0 mm 5 mps 741 mmHg 72%
10:00 +21°C° 0 mm 5 mps 741 mmHg 66%
11:00 +23°C° 0 mm 5 mps 742 mmHg 60%
12:00 +25°C° 0.3 mm 5 mps 742 mmHg 59%
13:00 +24°C° 0.3 mm 6 mps 742 mmHg 58%
14:00 +26°C° 0.3 mm 6 mps 742 mmHg 56%
15:00 +25°C° 0.1 mm 5 mps 742 mmHg 59%
16:00 +25°C° 0.1 mm 4 mps 742 mmHg 62%
17:00 +24°C° 0.1 mm 3 mps 742 mmHg 64%
18:00 +23°C° 0 mm 2 mps 742 mmHg 68%
19:00 +21°C° 0 mm 2 mps 743 mmHg 72%
20:00 +21°C° 0 mm 1 mps 743 mmHg 75%
21:00 +20°C° 0 mm 1 mps 743 mmHg 77%
22:00 +19°C° 0 mm 1 mps 743 mmHg 78%
23:00 +19°C° 0 mm 1 mps 743 mmHg 80%

8 August, Sunday

Time Temperature Precipitation Wind Pressure Humidity
00:00 +18°C° 0 mm 2 mps 743 mmHg 81%
01:00 +17°C° 0 mm 2 mps 743 mmHg 82%
02:00 +17°C° 0 mm 3 mps 743 mmHg 82%
03:00 +17°C° 0 mm 3 mps 743 mmHg 84%
04:00 +16°C° 0 mm 3 mps 743 mmHg 86%
05:00 +16°C° 0 mm 3 mps 743 mmHg 87%
06:00 +18°C° 0 mm 4 mps 743 mmHg 81%
07:00 +20°C° 0 mm 4 mps 743 mmHg 75%
08:00 +21°C° 0 mm 5 mps 743 mmHg 68%
09:00 +23°C° 0 mm 5 mps 743 mmHg 62%
10:00 +26°C° 0 mm 6 mps 743 mmHg 56%
11:00 +28°C° 0 mm 6 mps 743 mmHg 49%
12:00 +28°C° 0 mm 6 mps 743 mmHg 52%
13:00 +28°C° 0 mm 5 mps 743 mmHg 55%
14:00 +27°C° 0 mm 5 mps 743 mmHg 57%
15:00 +28°C° 0 mm 4 mps 743 mmHg 55%
16:00 +29°C° 0 mm 4 mps 743 mmHg 53%
17:00 +30°C° 0 mm 3 mps 743 mmHg 51%
18:00 +28°C° 0 mm 3 mps 744 mmHg 60%
19:00 +26°C° 0 mm 3 mps 744 mmHg 68%
20:00 +24°C° 0 mm 3 mps 744 mmHg 77%
21:00 +22°C° 0.1 mm 3 mps 745 mmHg 80%
22:00 +21°C° 0.1 mm 3 mps 745 mmHg 84%
23:00 +20°C° 0.1 mm 2 mps 745 mmHg 87%

9 August, Monday

Time Temperature Precipitation Wind Pressure Humidity
00:00 +19°C° 0.1 mm 2 mps 745 mmHg 88%
01:00 +19°C° 0.1 mm 3 mps 745 mmHg 89%
02:00 +19°C° 0.1 mm 3 mps 744 mmHg 90%
03:00 +18°C° 1 mm 3 mps 745 mmHg 92%
04:00 +18°C° 1 mm 3 mps 745 mmHg 94%
05:00 +18°C° 1 mm 3 mps 746 mmHg 96%
06:00 +19°C° 0.5 mm 2 mps 746 mmHg 94%
07:00 +19°C° 0.5 mm 2 mps 746 mmHg 93%
08:00 +20°C° 0.5 mm 2 mps 746 mmHg 91%
09:00 +19°C° 0.1 mm 3 mps 746 mmHg 91%
10:00 +18°C° 0.1 mm 3 mps 747 mmHg 90%
11:00 +18°C° 0.1 mm 4 mps 747 mmHg 90%
12:00 +19°C° 0 mm 4 mps 748 mmHg 82%
13:00 +21°C° 0 mm 4 mps 748 mmHg 73%
14:00 +22°C° 0 mm 5 mps 748 mmHg 65%
15:00 +22°C° 0 mm 4 mps 748 mmHg 64%
16:00 +22°C° 0 mm 4 mps 749 mmHg 63%
17:00 +22°C° 0 mm 3 mps 749 mmHg 62%
18:00 +21°C° 0 mm 3 mps 749 mmHg 66%
19:00 +20°C° 0 mm 2 mps 749 mmHg 69%
20:00 +20°C° 0 mm 1 mps 749 mmHg 73%
21:00 +19°C° 0 mm 1 mps 749 mmHg 75%
22:00 +19°C° 0 mm 1 mps 749 mmHg 77%
23:00 +18°C° 0 mm 1 mps 749 mmHg 79%

10 August, Tuesday

Time Temperature Precipitation Wind Pressure Humidity
00:00 +18°C° 0 mm 1 mps 749 mmHg 79%
01:00 +18°C° 0 mm 1 mps 749 mmHg 79%
02:00 +18°C° 0 mm 1 mps 749 mmHg 79%
03:00 +18°C° 0 mm 1 mps 749 mmHg 78%
04:00 +18°C° 0 mm 1 mps 749 mmHg 78%
05:00 +18°C° 0 mm 1 mps 749 mmHg 77%
06:00 +19°C° 0 mm 1 mps 749 mmHg 74%
07:00 +20°C° 0 mm 1 mps 749 mmHg 72%
08:00 +21°C° 0 mm 1 mps 749 mmHg 70%
09:00 +22°C° 0.1 mm 1 mps 749 mmHg 64%
10:00 +23°C° 0.1 mm 2 mps 749 mmHg 59%
11:00 +24°C° 0.1 mm 2 mps 749 mmHg 53%
12:00 +24°C° 0 mm 2 mps 749 mmHg 51%
13:00 +25°C° 0 mm 2 mps 749 mmHg 49%
14:00 +25°C° 0 mm 2 mps 749 mmHg 47%
15:00 +25°C° 0 mm 2 mps 749 mmHg 49%
16:00 +24°C° 0 mm 2 mps 749 mmHg 51%
17:00 +24°C° 0 mm 2 mps 749 mmHg 52%
18:00 +23°C° 0 mm 2 mps 749 mmHg 57%
19:00 +21°C° 0 mm 2 mps 749 mmHg 61%
20:00 +20°C° 0 mm 2 mps 749 mmHg 66%
21:00 +19°C° 0 mm 2 mps 749 mmHg 67%
22:00 +19°C° 0 mm 2 mps 749 mmHg 68%
23:00 +18°C° 0 mm 2 mps 749 mmHg 70%
Show more